Weather in Medvedevo

Russia / Arkhangel'skaya Oblast'     60°59′51″N   38°33′08″E
temp.,
°C
wind,
m/s
gust,
m/s
humid.,
%
clouds,
%
prec.,
mm/h
press.,
hPa
HPBL,
m
10 april, sat
sat1000:00+1s6167963 0.0 1015849
03:00+1ssw61681100 0.0 1015834
06:00+1s61585100 0.0 1015823
09:00+2s61587100 0.0 10151006
12:00+4ssw71484100 0.0 10161150
15:00+6ssw61382100 0.2 10161313
18:00+4s61491100 0.1 10151165
21:00+5s7177899 0.1 10141161
11 april, sun
sun1100:00+3sw61388100 0.4 10141069
03:00+1sw41193100 1.9 1018802
06:000sw412905 0.0 1021590
09:00+3sw411785 0.0 1023693
12:00+6sw59614 0.0 10251183
15:00+7sw410600 0.0 10261908
18:00+5sw39680 0.0 1028473
21:00+1sw398654 0.0 1031157
12 april, mon
mon1200:00−1sw27885 0.0 1032111
03:00−1sw228681 0.0 103440
06:00−1s248784 0.0 103479
09:00+5sse377173 0.0 1033401
12:00+7sse487390 0.0 1031591
15:00+12s487221 0.0 1029897
18:00+11s410785 0.0 1028562
21:00+7s313895 0.0 1028350
13 april, tue
tue1300:00+6s3139190 0.0 1027321
03:00+4sse31095100 0.1 1026271
06:00+5sse31197100 1.6 1024401
09:00+6sse31097100 4.7 1022409
12:00+7ssw31196100 1.7 1021559
15:00+7ssw31097100 2.9 1021455
18:00+7sw299899 0.5 1021383
21:00+7ssw159899 0.5 1021134
14 april, wed
wed1400:00+7ssw239754 0.0 102076
03:00+6s249999 0.1 102093
06:00+7sse259993 0.0 1019132
09:00+8s2898100 0.1 1018301
12:00+9sse31099100 1.4 1017482
15:00+9s31198100 2.5 1015668
18:00+9sw3998100 0.6 1015455
21:00+8sw3998100 0.7 1015388